Dewpoint
-8 -9 -9 -10 -10 -10 -10 -11 -11 -11 -12 -12 -14 -15 -16 -16 -17 -18 -18 -16 -19 -12 -15 7 5 2 3 6 9 8 8 8 7 7 6 3 4 8 9 10 11 12 12 13 17
-8 -9 -9 -10 -10 -10 -10 -11 -11 -12 -12 -12 -14 -16 -16 -16 -17 -23 -8 -14 -17 -16 -2 2 -1 -2 1 7 7 6 6 7 6 6 5 4 4 6 9 10 11 14 16 16 16
-8 -9 -9 -10 -11 -11 -11 -12 -14 -15 -14 -12 -13 -14 -13 -15 -17 0 -1 -9 -15 -13 -2 -2 -3 -4 1 6 5 4 6 6 5 5 5 4 3 4 7 9 9 11 15 16 16
-7 -8 -9 -10 -11 -12 -13 -14 -16 -15 -13 -12 -11 -8 -10 -14 -14 3 -3 -12 -13 -4 -2 -3 -4 -2 2 4 2 5 5 6 5 4 3 2 2 3 6 6 8 10 14 15 15
-5 -7 -8 -9 -11 -12 -14 -15 -16 -15 -13 -13 -11 -7 -7 -6 -12 1 -5 -11 -11 -2 -4 -4 -3 -1 0 -0 4 6 5 5 4 3 2 2 2 4 6 7 8 11 14 14 15
-4 -5 -6 -8 -10 -11 -14 -15 -14 -14 -13 -13 -10 -8 -5 -8 -18 -3 -6 -9 -3 -2 -3 -2 -0 1 -1 2 6 6 4 4 3 1 2 3 2 5 7 7 10 13 13 12 13
-5 -5 -6 -6 -8 -10 -12 -13 -13 -12 -12 -12 -9 -6 -4 -4 -14 -20 -6 0 0 -2 -1 1 4 3 4 3 5 4 5 3 2 0 1 3 2 6 9 11 11 12 13 11 12
-6 -6 -6 -7 -7 -8 -11 -12 -12 -12 -12 -12 -9 -5 -2 -10 -14 -2 -0 1 -1 -3 -1 3 5 5 6 6 5 4 3 3 1 -0 3 2 2 4 10 11 11 12 12 12 13
-7 -7 -7 -7 -7 -7 -9 -11 -12 -11 -11 -10 -6 -4 -4 -7 -3 3 -2 0 -1 -4 -1 1 4 5 6 7 6 5 5 3 2 0 -0 2 4 7 9 10 10 11 12 13 13
-8 -8 -8 -8 -8 -7 -8 -10 -11 -10 -7 -8 -7 1 -2 2 2 2 -1 -1 -1 -3 -2 -1 2 4 5 6 6 3 5 2 3 1 -0 3 5 3 8 9 9 10 12 13 13
-9 -8 -8 -9 -9 -7 -9 -7 -4 -1 -2 -6 -9 -5 -6 1 4 2 1 1 -0 -2 -5 -5 -1 3 3 3 2 5 5 3 2 -0 2 4 6 6 6 7 8 10 11 12 12
-9 -10 -10 -9 -9 -8 -7 -3 -2 -3 -3 -7 -6 -5 -7 -5 -3 1 2 -1 -2 -2 -6 -5 -3 -6 -3 2 4 4 5 3 1 0 -1 -1 1 4 7 7 7 9 9 11 11
-8 -9 -10 -10 -10 -7 -4 -4 -7 -3 -3 -10 -9 -9 -9 -7 -7 -1 1 -1 -4 -3 -5 -8 -8 -9 -6 1 3 3 3 1 2 -1 -3 4 2 3 6 8 9 9 9 9 9
-6 -7 -9 -10 -6 -6 -1 -7 -7 -4 -5 -10 -10 -8 -8 -10 -10 -5 1 -3 -3 -4 -5 -7 -9 -4 -6 -3 1 2 -1 0 1 -2 -0 2 0 3 5 6 7 8 8 7 8
-6 -7 -8 -10 -9 -5 -6 -6 -5 -3 -6 -11 -7 -8 -8 -10 -12 -10 1 -2 -1 -3 -4 -6 -6 -3 -2 -4 -2 0 -2 -4 -4 -2 -0 2 1 -2 7 5 5 6 7 8 12
-6 -6 -7 -8 -8 -8 -6 -6 -2 -5 -9 -8 -9 -9 -10 -11 -10 -7 -0 -1 -2 -2 -3 -6 -5 -6 -5 -5 -2 -3 -4 -1 1 -1 3 3 3 -2 0 6 7 7 9 11 13
-6 -6 -7 -7 -6 -7 -7 -3 -5 -9 -14 -8 -8 -11 -10 -10 -5 -5 -1 1 0 1 0 -3 -3 -7 -8 -6 -5 -3 -2 2 3 3 1 8 6 0 5 9 9 9 10 11 13
-7 -6 -7 -7 -9 -9 -5 -5 -4 -11 -12 -10 -13 -11 -8 -10 -7 -5 -2 1 -1 -2 -3 -0 -1 -4 -5 -6 -5 -3 -3 -0 3 1 1 9 3 2 8 8 9 9 9 13 13
-7 -6 -6 -7 -8 -9 -5 -5 -8 -10 -12 -10 -15 -9 -7 -9 -8 -3 -4 -1 -3 -1 -1 -2 -3 -4 -5 -6 -6 -2 -0 -3 0 -1 -0 -2 2 5 8 9 11 9 10 12 13
-6 -2 -3 -7 -7 -6 -5 -5 -9 -11 -8 -10 -12 -8 -5 -5 -7 -6 -3 -6 -5 -5 -4 -3 0 -6 -5 -4 -4 -3 -4 0 -1 2 4 1 4 3 11 10 10 11 10 13 14
-4 -4 -3 -2 -4 -5 -5 -7 -9 -10 -8 -10 -11 -8 -5 -4 -7 -7 -6 -5 -6 -6 -5 -4 -1 -3 -3 -2 -4 -2 -1 -2 -1 3 2 3 4 8 8 9 9 12 10 13 14
1 -5 -4 -0 -2 -6 -6 -7 -7 -11 -10 -9 -7 -8 -8 -2 -3 -5 -6 -4 -0 0 -2 -4 -0 -1 -3 -5 -4 -5 -4 -2 0 4 2 4 2 7 9 9 8 11 13 13 14
1 -4 1 0 -2 -3 -7 -5 -8 -10 -8 -7 -6 -7 -6 -3 1 -2 -5 -6 -0 1 3 2 2 2 -1 -2 -4 -2 -4 -1 1 5 5 3 4 9 9 8 9 13 14 15 15
2 -3 -4 1 -0 0 -4 -5 -6 -7 -9 -7 -4 -4 -2 -2 -0 1 -3 -1 5 4 8 4 4 3 -1 0 -4 -1 -4 -2 1 2 1 3 -0 10 9 9 11 14 15 15 15
2 -1 4 -0 -1 -0 -1 -3 -4 -3 -3 -3 -2 -3 -4 -1 -2 1 -2 -2 1 6 7 7 7 4 2 2 2 -2 -3 -3 -0 -0 2 1 0 1 9 9 10 14 15 15 14
2 3 2 2 3 3 3 -1 -2 -3 -3 -2 -0 -3 -1 2 1 -1 -2 -3 0 5 6 8 8 7 5 4 5 4 -1 -1 -2 -2 -0 1 2 8 8 10 11 12 14 14 14
1 2 3 2 3 4 0 -1 -1 -2 -1 -3 -1 -1 1 2 4 5 6 8 8 7 7 8 5 8 3 5 6 6 3 3 2 4 3 5 6 8 10 10 10 10 9 13 14
Wind_Speed
10 10 10 11 11 11 12 12 13 14 14 13 11 9 8 9 10 11 14 9 16 9 18 18 14 11 11 10 7 4 5 2 4 4 5 8 6 2 2 6 5 3 3 8 18
11 11 11 11 11 11 11 12 13 14 14 13 11 10 10 11 12 10 4 7 10 17 21 21 17 14 14 11 7 8 6 5 4 5 7 7 7 4 6 7 6 7 8 15 18
11 11 11 12 11 11 12 13 13 14 13 12 12 11 11 12 4 3 0 5 11 17 16 16 14 15 14 10 10 5 5 2 0 5 8 10 8 4 9 6 9 12 14 17 18
11 11 11 12 12 12 13 13 14 13 12 12 11 10 10 5 2 1 1 6 12 17 17 15 16 16 14 10 10 9 6 4 6 9 10 11 10 6 8 11 4 5 17 20 20
11 11 11 12 13 14 14 15 14 13 13 12 10 9 8 3 2 3 4 7 14 16 17 17 17 15 13 13 8 11 7 9 8 11 12 10 9 8 7 4 3 8 17 18 17
11 11 11 12 13 14 15 15 14 13 13 12 9 8 5 5 4 6 7 8 11 15 15 13 12 10 9 10 10 3 8 11 11 6 2 8 10 4 2 5 7 11 16 16 16
12 12 12 12 13 14 15 15 15 15 14 12 9 7 6 4 6 9 11 11 12 10 14 13 8 10 3 9 4 8 10 9 6 4 4 11 13 4 2 7 10 13 16 16 16
12 12 13 13 13 14 15 15 16 16 14 12 10 7 4 5 8 10 14 11 11 6 10 11 5 6 7 3 8 8 9 10 8 4 1 8 6 8 5 9 11 12 15 17 17
12 12 13 13 13 14 14 16 17 15 14 12 9 2 2 4 6 11 14 12 11 8 5 9 7 9 7 10 10 9 10 3 2 1 8 5 10 7 4 8 11 12 12 15 17
13 13 12 12 12 13 13 16 13 13 6 7 3 4 4 3 7 13 14 13 9 12 6 9 11 10 10 9 11 8 8 6 4 2 9 9 8 8 6 7 11 12 10 13 16
14 14 13 12 11 11 12 12 9 3 7 10 10 6 1 4 9 11 16 13 9 13 11 15 11 15 15 14 13 6 7 9 4 5 8 5 6 1 4 9 10 11 11 12 14
14 14 13 12 10 6 7 4 5 7 12 13 15 15 14 6 9 13 18 14 13 12 13 8 16 16 11 10 11 11 11 11 5 4 8 8 9 4 4 8 10 10 11 12 12
14 14 12 11 8 3 1 3 11 11 8 4 4 4 4 19 14 20 25 18 13 14 16 15 2 9 14 14 14 14 12 9 7 8 8 8 11 6 4 7 7 9 10 10 11
15 13 12 8 2 5 2 8 12 6 5 7 6 5 4 8 11 13 26 13 8 14 13 13 13 7 14 17 14 13 11 9 13 8 6 3 7 7 3 6 10 12 12 11 8
14 13 11 7 5 1 5 8 10 2 5 4 6 4 4 8 10 16 24 16 11 9 8 6 9 14 14 14 14 12 3 6 6 9 7 10 7 5 5 8 6 10 9 6 2
14 13 11 9 6 6 5 6 3 6 7 5 5 5 8 12 9 15 23 11 7 7 12 11 2 7 14 12 10 7 8 6 7 9 10 4 6 8 4 2 1 6 6 5 6
15 13 12 10 3 6 5 3 6 8 4 5 3 3 4 10 9 17 21 19 11 11 12 13 13 9 8 9 10 13 12 8 9 8 9 4 5 9 2 4 2 5 7 5 9
16 12 13 11 8 8 5 8 10 2 5 1 3 4 6 5 6 13 18 17 19 12 4 10 12 18 14 17 10 18 14 10 6 9 6 4 6 1 2 3 6 9 8 8 11
15 11 11 8 8 12 10 10 6 7 1 3 6 7 5 6 3 11 16 19 16 16 10 8 9 5 9 16 16 13 14 16 11 6 8 9 5 8 4 5 6 8 9 9 10
13 8 7 9 11 13 10 13 6 4 3 4 7 3 7 3 9 10 14 13 17 14 18 3 5 11 11 7 8 9 14 10 9 14 8 6 5 8 8 9 8 7 9 9 10
8 6 5 5 13 14 11 14 10 9 5 6 6 5 3 3 3 6 10 6 10 10 15 13 8 9 9 12 14 10 11 10 8 4 9 9 5 5 6 8 8 5 7 10 12
3 5 2 11 10 14 12 9 8 9 13 9 6 9 8 2 6 6 7 3 5 6 14 16 9 10 14 5 6 18 19 18 11 13 10 9 6 6 5 6 6 6 6 8 13
6 6 2 7 7 9 9 10 14 10 12 8 9 9 7 6 5 9 5 3 4 7 8 9 9 10 11 9 9 9 12 11 12 7 7 9 3 4 5 8 8 7 8 10 12
5 4 7 10 7 8 12 15 14 11 13 10 7 6 8 11 10 5 8 6 4 2 1 7 4 11 10 4 8 18 15 13 13 10 12 11 8 6 8 9 11 10 11 12 10
3 1 4 4 9 8 6 5 15 10 11 9 11 13 12 11 13 11 12 7 8 5 5 7 8 10 12 6 6 10 14 16 17 16 15 13 8 2 10 10 10 11 12 12 9
6 5 6 8 5 9 8 13 11 12 8 11 12 10 9 12 12 10 12 11 10 7 7 5 7 6 11 6 9 11 15 13 15 16 11 10 10 3 12 14 14 11 11 11 11
6 6 6 2 6 7 9 10 12 5 11 16 5 8 11 9 5 9 8 6 5 8 8 7 7 8 13 4 6 11 12 12 12 9 12 12 1 9 12 13 13 11 10 13 12
Wind_Direction
18 14 10 7 3 359 354 350 346 344 342 343 338 330 323 318 307 283 263 237 214 197 182 172 179 183 189 209 222 259 236 163 72 14 11 35 6 70 201 162 187 169 91 128 154
16 10 5 4 358 354 350 345 342 339 337 339 337 330 326 327 314 295 240 212 203 197 173 175 179 181 195 205 206 243 261 62 5 8 347 343 338 327 218 185 178 150 121 138 150
9 7 1 358 353 350 345 341 338 335 335 335 330 326 327 334 340 111 304 204 187 180 179 182 188 185 204 203 200 196 273 24 56 352 329 320 299 252 248 216 226 198 163 157 160
4 2 358 355 349 346 341 339 336 333 335 332 330 330 330 347 7 244 198 161 172 167 170 176 181 196 209 202 200 246 237 271 299 315 307 308 315 290 252 274 300 198 168 166 168
359 357 354 352 346 343 338 339 336 332 332 331 329 327 334 302 263 206 169 164 169 171 177 180 186 202 214 207 201 235 257 290 287 298 309 295 282 299 286 229 172 163 165 168 170
350 349 348 347 343 339 337 339 335 329 326 325 325 321 322 259 239 188 176 172 178 172 180 187 197 202 216 216 229 115 274 283 286 334 310 298 314 270 91 198 180 165 168 168 177
341 341 341 342 338 336 334 333 331 327 321 316 314 320 291 277 209 186 178 164 168 180 182 180 198 200 189 203 218 256 269 268 245 328 8 322 251 234 130 167 172 169 173 169 179
336 336 335 337 336 333 330 328 325 321 315 307 304 311 279 222 186 183 179 178 170 165 186 195 183 229 236 265 225 248 252 262 110 292 121 327 293 83 150 167 173 174 176 178 184
333 334 335 333 332 331 332 330 323 314 306 298 298 229 214 204 192 188 176 172 167 169 159 192 217 240 232 239 236 203 252 218 192 285 330 327 323 71 173 191 193 189 184 189 196
328 333 334 331 331 333 334 335 321 311 307 303 286 208 211 155 181 180 173 168 163 171 162 192 212 233 219 224 233 243 216 189 262 350 317 289 267 240 193 215 206 206 199 202 208
325 328 333 331 331 336 345 353 346 324 306 270 280 274 186 143 137 171 168 162 164 180 196 199 215 220 226 227 266 280 262 259 259 319 297 271 281 259 213 221 211 213 212 222 223
320 322 327 330 331 343 360 34 24 310 300 281 264 251 237 198 205 183 174 177 184 203 201 184 228 229 242 229 237 239 248 255 280 189 292 292 289 250 237 239 229 217 226 228 226
320 321 321 327 328 344 154 352 343 336 262 265 221 224 206 203 212 192 183 200 205 212 199 224 114 233 215 222 229 234 243 243 269 305 263 284 242 185 216 247 223 231 237 246 244
316 319 322 330 359 339 169 326 340 334 270 151 174 163 144 183 216 200 189 179 199 214 208 241 249 252 206 225 219 239 221 251 260 258 255 299 276 173 227 246 232 241 237 243 245
311 309 316 322 288 289 252 319 330 296 264 106 122 153 185 202 131 192 185 202 211 185 196 195 212 208 208 214 217 245 238 240 246 247 274 193 257 270 179 274 238 223 222 242 264
314 302 298 299 284 245 236 302 300 232 233 154 151 201 219 198 184 151 181 210 232 212 227 268 196 224 228 218 220 190 205 216 241 244 232 187 271 275 353 0 320 145 184 198 160
312 301 283 273 231 216 245 250 226 239 121 139 168 277 262 175 164 172 181 196 192 200 210 208 217 205 210 189 202 215 205 209 218 206 245 104 243 269 97 122 184 189 207 178 162
311 299 274 264 248 220 220 220 234 272 223 147 281 255 231 183 182 185 187 202 219 229 273 219 217 205 193 222 178 201 214 247 220 237 219 151 255 253 98 258 190 202 203 167 169
319 306 275 258 217 199 210 219 226 242 263 259 248 242 164 171 260 190 202 207 203 212 228 207 236 176 215 206 221 186 221 244 273 254 279 266 232 235 194 178 174 187 193 185 171
327 298 242 237 208 184 219 238 242 243 260 238 256 255 215 171 214 204 186 210 215 210 228 204 265 184 166 184 221 250 211 203 227 264 256 211 260 270 186 193 189 198 190 173 161
322 269 208 190 171 197 224 226 233 221 226 242 247 236 221 211 241 212 191 129 216 199 216 230 237 151 164 207 205 193 220 236 293 305 293 270 222 86 170 182 190 165 181 176 167
290 233 272 168 197 209 228 219 222 224 218 239 263 263 252 211 235 221 220 207 145 175 193 208 224 241 226 150 268 209 214 213 236 210 229 298 312 131 167 198 207 155 161 174 171
296 270 239 184 222 202 213 218 235 229 204 214 227 233 212 234 237 236 210 152 213 225 188 165 215 226 209 193 202 227 213 221 230 282 225 260 250 140 148 171 153 135 138 154 165
292 237 183 211 257 287 201 219 213 221 249 233 248 232 232 237 224 245 218 174 162 227 213 205 218 252 255 354 219 205 231 216 217 228 239 243 272 151 174 169 141 129 136 131 140
260 93 334 196 210 232 237 226 213 202 215 212 217 240 225 235 228 214 236 219 192 165 198 220 231 224 263 296 266 257 217 210 213 236 262 265 261 251 177 161 135 130 136 133 134
328 333 322 274 261 229 196 216 227 206 226 212 233 211 214 237 248 232 223 231 231 171 210 203 241 235 250 220 244 240 237 253 233 249 269 276 269 45 138 132 122 122 142 149 155
341 314 289 202 214 227 198 221 222 227 235 244 256 248 226 230 316 290 293 298 310 268 202 210 229 225 247 175 252 231 224 228 214 240 237 231 45 142 141 143 132 129 134 116 111
Height
1528 1527 1525 1523 1522 1520 1519 1517 1516 1513 1512 1511 1509 1508 1507 1505 1504 1503 1502 1504 1503 1506 1509 1514 1517 1519 1522 1521 1521 1519 1507 1507 1502 1501 1499 1496 1495 1501 1503 1504 1507 1509 1509 1512 1514
1528 1527 1525 1523 1522 1520 1518 1516 1515 1513 1511 1509 1507 1505 1505 1503 1501 1499 1501 1500 1501 1504 1509 1512 1516 1518 1519 1518 1518 1514 1501 1501 1503 1501 1499 1497 1498 1498 1501 1502 1506 1509 1511 1511 1514
1528 1526 1525 1523 1521 1519 1517 1515 1514 1511 1509 1507 1506 1504 1503 1501 1499 1500 1499 1499 1500 1504 1510 1514 1516 1518 1515 1514 1514 1509 1501 1504 1502 1502 1501 1497 1495 1496 1497 1498 1498 1503 1508 1510 1513
1528 1526 1524 1522 1520 1518 1516 1514 1512 1510 1508 1506 1504 1502 1501 1500 1498 1499 1499 1499 1501 1505 1510 1512 1515 1515 1512 1510 1510 1509 1504 1504 1502 1502 1499 1495 1495 1494 1495 1494 1498 1501 1505 1507 1510
1528 1525 1523 1521 1519 1516 1515 1512 1510 1508 1506 1504 1503 1501 1500 1501 1501 1499 1499 1499 1501 1505 1509 1511 1512 1512 1508 1507 1508 1507 1502 1502 1500 1499 1498 1496 1494 1494 1494 1496 1499 1502 1505 1508 1511
1526 1524 1522 1520 1518 1515 1513 1511 1509 1506 1504 1502 1501 1500 1500 1500 1498 1498 1499 1500 1502 1506 1508 1511 1511 1511 1506 1506 1505 1502 1504 1501 1497 1496 1497 1495 1490 1494 1493 1496 1499 1503 1505 1507 1511
1525 1523 1520 1518 1516 1513 1511 1509 1507 1504 1502 1500 1500 1499 1498 1498 1495 1497 1499 1502 1504 1507 1508 1510 1510 1511 1508 1504 1506 1504 1501 1494 1490 1495 1493 1494 1485 1488 1494 1496 1499 1502 1504 1507 1511
1523 1521 1519 1517 1514 1512 1510 1507 1504 1501 1499 1498 1497 1497 1496 1494 1494 1496 1498 1500 1503 1506 1508 1510 1511 1510 1508 1506 1502 1498 1494 1495 1491 1493 1494 1494 1486 1486 1494 1495 1498 1500 1502 1506 1510
1522 1520 1518 1516 1513 1510 1508 1505 1501 1498 1496 1495 1495 1496 1493 1492 1494 1495 1498 1501 1503 1506 1508 1509 1511 1508 1506 1502 1498 1493 1494 1496 1493 1494 1491 1492 1489 1492 1494 1495 1496 1499 1502 1505 1508
1519 1518 1516 1514 1511 1509 1506 1503 1498 1496 1494 1493 1493 1497 1493 1492 1492 1492 1497 1500 1503 1506 1508 1509 1509 1503 1500 1498 1503 1492 1495 1493 1498 1492 1490 1489 1488 1485 1491 1492 1493 1496 1500 1503 1505
1517 1515 1513 1512 1510 1507 1505 1501 1501 1498 1494 1492 1491 1491 1490 1491 1491 1494 1495 1500 1502 1504 1502 1505 1503 1500 1492 1492 1489 1494 1497 1499 1493 1491 1494 1486 1487 1484 1487 1489 1490 1494 1498 1501 1502
1514 1513 1511 1510 1508 1506 1505 1506 1506 1506 1494 1487 1485 1485 1487 1489 1490 1493 1496 1498 1499 1497 1498 1503 1500 1488 1490 1491 1495 1496 1498 1495 1490 1493 1493 1484 1482 1479 1484 1485 1486 1491 1494 1497 1499
1512 1510 1509 1508 1506 1506 1505 1506 1503 1501 1497 1482 1482 1482 1482 1485 1484 1486 1491 1492 1492 1492 1494 1490 1484 1486 1490 1493 1497 1493 1494 1492 1496 1490 1485 1488 1482 1478 1480 1483 1486 1489 1491 1493 1495
1509 1508 1507 1506 1508 1505 1506 1503 1501 1500 1489 1473 1476 1478 1480 1481 1482 1482 1485 1489 1488 1487 1489 1486 1481 1487 1489 1491 1490 1494 1486 1491 1493 1494 1494 1485 1493 1477 1477 1480 1482 1485 1488 1490 1492
1506 1505 1505 1504 1504 1505 1504 1502 1500 1500 1494 1472 1474 1478 1478 1478 1474 1478 1482 1486 1481 1483 1487 1481 1482 1485 1487 1485 1484 1490 1487 1490 1490 1490 1490 1486 1492 1473 1475 1478 1474 1479 1485 1487 1491
1503 1502 1502 1502 1501 1502 1501 1501 1501 1497 1491 1470 1470 1470 1470 1472 1472 1475 1480 1483 1480 1480 1481 1474 1481 1479 1478 1480 1483 1484 1491 1491 1489 1484 1498 1482 1489 1477 1470 1475 1477 1480 1484 1488 1490
1500 1498 1498 1498 1501 1499 1500 1501 1495 1489 1470 1470 1467 1465 1464 1463 1465 1469 1473 1476 1476 1487 1483 1475 1476 1474 1477 1480 1481 1486 1489 1499 1504 1498 1494 1488 1491 1476 1470 1478 1480 1481 1484 1487 1490
1495 1494 1492 1494 1495 1496 1498 1496 1495 1472 1470 1470 1468 1463 1460 1461 1459 1463 1468 1471 1468 1468 1469 1478 1480 1468 1470 1472 1477 1483 1481 1482 1504 1492 1485 1492 1491 1471 1475 1478 1482 1483 1483 1487 1490
1491 1489 1488 1489 1490 1492 1496 1488 1475 1471 1471 1472 1465 1463 1461 1461 1460 1460 1461 1463 1460 1466 1475 1472 1471 1461 1463 1465 1468 1477 1485 1468 1478 1473 1486 1471 1469 1467 1474 1476 1480 1481 1483 1486 1490
1488 1487 1487 1484 1486 1490 1488 1482 1473 1476 1474 1472 1470 1465 1464 1462 1460 1458 1458 1453 1456 1458 1462 1460 1475 1456 1463 1466 1465 1468 1463 1482 1476 1497 1500 1474 1479 1472 1474 1473 1475 1479 1482 1487 1492
1486 1485 1482 1482 1484 1487 1477 1473 1474 1476 1476 1473 1468 1467 1464 1463 1459 1455 1451 1454 1453 1454 1459 1459 1468 1461 1463 1466 1462 1472 1471 1467 1461 1469 1480 1484 1470 1456 1462 1468 1472 1478 1482 1487 1493
1486 1479 1480 1480 1482 1475 1471 1472 1475 1470 1474 1471 1471 1467 1466 1464 1460 1457 1453 1448 1456 1455 1458 1456 1460 1466 1457 1447 1451 1450 1457 1459 1471 1478 1467 1472 1464 1460 1465 1470 1474 1478 1485 1487 1491
1486 1480 1479 1480 1469 1468 1469 1472 1472 1468 1468 1468 1467 1467 1463 1463 1468 1458 1454 1455 1457 1454 1454 1456 1459 1466 1462 1457 1455 1457 1453 1455 1457 1461 1467 1474 1462 1461 1465 1469 1475 1479 1484 1489 1492
1487 1473 1476 1478 1472 1467 1463 1467 1467 1467 1467 1467 1465 1464 1465 1464 1460 1459 1455 1452 1457 1454 1458 1458 1455 1457 1452 1451 1440 1457 1450 1450 1454 1462 1460 1460 1451 1459 1463 1467 1474 1482 1485 1491 1494
1486 1476 1478 1464 1467 1467 1466 1460 1462 1461 1465 1465 1464 1463 1460 1462 1457 1459 1454 1451 1453 1458 1456 1454 1458 1450 1445 1445 1449 1445 1443 1446 1452 1450 1457 1450 1446 1444 1459 1468 1474 1482 1486 1491 1494
1488 1486 1481 1474 1472 1470 1467 1463 1460 1458 1461 1461 1463 1456 1459 1462 1454 1453 1450 1449 1447 1453 1452 1454 1455 1449 1450 1445 1448 1452 1446 1444 1443 1442 1444 1444 1448 1453 1462 1470 1479 1484 1487 1491 1494
1490 1489 1487 1470 1466 1463 1457 1458 1460 1460 1462 1460 1458 1458 1459 1456 1460 1459 1458 1457 1455 1453 1450 1452 1446 1454 1454 1444 1447 1455 1443 1446 1442 1444 1445 1453 1447 1455 1466 1472 1479 1485 1487 1490 1495